カタログに戻る

SENTINEL 2B

運用中科学SSO
NORAD 42063·PAYLOAD·🇪🇺 EU

打ち上げ Mar 7, 2017 から Guiana Space Centre

Loading…

次のパス (今後24時間)

TLE

最新Source: Space-Track

元期: Sep 14, 2026, 15:33 UTC

1 42063U 17013A   26257.64804561  .00000152  00000-0  74626-4 0  9990
2 42063  98.5721 331.1334 0001206  85.3188 274.8133 14.30814534497437

AllMySatでSENTINEL 2Bをリアルタイム追跡

Download on the App Store